Albany, NY

1:58 PM EST on December 06, 2019 (GMT -0500)
Albany International

Weather History for KALB - August, 2019

Change the Weather History Date:

Wednesday, August 28, 2019

  Actual Average Record
Temperature  
Mean Temperature 76 °F 68 °F  
Max Temperature 85 °F 78 °F 98 °F (1948)
Min Temperature 66 °F 58 °F 42 °F (1982)
Degree Days  
Heating Degree Days 0 1  
Month to date heating degree days 2 11  
Since 1 June heating degree days 29 68  
Since 1 July heating degree days 2 16  
Cooling Degree Days 11 4  
Month to date cooling degree days 208 166  
Year to date cooling degree days 714 532  
Since 1 June cooling degree days 692 502  
Growing Degree Days 25 (Base 50)    
Moisture  
Dew Point 61 °F    
Average Humidity 72    
Maximum Humidity 93    
Minimum Humidity 51    
Precipitation  
Precipitation 0.04 in 0.10 in 4.69 in (2011)
Month to date precipitation 4.12 3.18  
Year to date precipitation 28.98 25.87  
Sea Level Pressure  
Sea Level Pressure 29.88 in    
Wind  
Wind Speed 9 mph (SSW)    
Max Wind Speed 22 mph    
Max Gust Speed 27 mph    
Visibility 10 miles    
Events Rain    
T = Trace of Precipitation, MM = Missing Value Source: NWS Daily Summary

Daily Weather History Graph

Daily Weather History Graph

Search for Another Location

Airport or City:

Astronomy

Aug. 28, 2019 Rise Set
Actual Time 6:15 AM EDT 7:36 PM EDT
Civil Twilight 5:45 AM EDT 8:06 PM EDT
Nautical Twilight 5:10 AM EDT 8:41 PM EDT
Astronomical Twilight 4:33 AM EDT 9:18 PM EDT
Moon 3:39 AM EDT (8/28) 6:50 PM EDT (8/28)
Length of Visible Light 14h 20m
Length of Day
13h 21m
Waning Crescent, 5% of the Moon is Illuminated
Aug 28
Waning Crescent
Aug 30
New
Sep 5
First Quarter
Sep 14
Full
Sep 21
Last Quarter

Hourly Weather History & Observations

Time (EDT) Temp. Heat Index Dew Point Humidity Pressure Visibility Wind Dir Wind Speed Gust Speed Precip Events Conditions
12:51 AM 69.1 °F - 57.9 °F 68% 29.98 in 10.0 mi South 10.4 mph - N/A   Overcast
1:51 AM 68.0 °F - 57.9 °F 70% 29.96 in 10.0 mi South 9.2 mph - N/A   Overcast
2:51 AM 68.0 °F - 57.9 °F 70% 29.96 in 10.0 mi South 11.5 mph - N/A   Overcast
3:51 AM 68.0 °F - 57.9 °F 70% 29.95 in 10.0 mi South 8.1 mph - N/A   Overcast
4:51 AM 66.9 °F - 57.9 °F 73% 29.94 in 10.0 mi South 10.4 mph - N/A   Overcast
5:51 AM 66.9 °F - 57.9 °F 73% 29.93 in 10.0 mi South 6.9 mph - N/A   Overcast
6:51 AM 66.9 °F - 59.0 °F 76% 29.93 in 10.0 mi South 8.1 mph - N/A   Mostly Cloudy
7:51 AM 68.0 °F - 59.0 °F 73% 29.93 in 10.0 mi South 8.1 mph - N/A   Mostly Cloudy
8:12 AM 68.0 °F - 59.0 °F 73% 29.93 in 10.0 mi South 9.2 mph 18.4 mph N/A   Mostly Cloudy
8:39 AM 68.0 °F - 60.1 °F 76% 29.92 in 10.0 mi South 13.8 mph 19.6 mph N/A   Mostly Cloudy
8:51 AM 70.0 °F - 60.1 °F 71% 29.92 in 10.0 mi South 9.2 mph - N/A   Mostly Cloudy
9:51 AM 72.0 °F - 61.0 °F 68% 29.91 in 10.0 mi SSE 10.4 mph - N/A   Scattered Clouds
10:51 AM 73.9 °F - 62.1 °F 66% 29.91 in 10.0 mi SSW 9.2 mph - N/A   Mostly Cloudy
11:51 AM 77.0 °F - 62.1 °F 60% 29.88 in 10.0 mi South 12.7 mph 18.4 mph N/A   Mostly Cloudy
12:51 PM 80.1 °F 81.2 °F 62.1 °F 54% 29.86 in 10.0 mi South 10.4 mph - N/A   Scattered Clouds
1:51 PM 82.0 °F 83.4 °F 64.0 °F 54% 29.83 in 10.0 mi South 11.5 mph - N/A   Scattered Clouds
2:51 PM 84.9 °F 86.1 °F 64.0 °F 49% 29.81 in 10.0 mi SSW 16.1 mph 21.9 mph N/A   Scattered Clouds
3:51 PM 82.9 °F 84.0 °F 63.0 °F 51% 29.80 in 10.0 mi South 10.4 mph - N/A   Overcast
4:51 PM 81.0 °F 82.2 °F 63.0 °F 54% 29.79 in 10.0 mi South 11.5 mph - 0.00 in   Overcast
5:51 PM 79.0 °F - 63.0 °F 58% 29.81 in 10.0 mi WSW 9.2 mph - N/A   Overcast
6:11 PM 72.0 °F - 63.0 °F 73% 29.83 in 10.0 mi WNW 17.3 mph 27.6 mph 0.00 in Rain Light Rain
6:31 PM 70.0 °F - 62.1 °F 76% 29.84 in 10.0 mi WNW 17.3 mph 25.3 mph 0.00 in Rain Light Rain
6:51 PM 69.1 °F - 63.0 °F 81% 29.85 in 10.0 mi West 6.9 mph - 0.00 in Rain Light Rain
7:09 PM 68.0 °F - 63.0 °F 84% 29.84 in 3.0 mi NNW 4.6 mph - 0.02 in Rain Light Rain
7:51 PM 66.9 °F - 64.0 °F 90% 29.84 in 10.0 mi West 8.1 mph - 0.02 in Rain Light Rain
8:41 PM 66.9 °F - 63.0 °F 87% 29.83 in 10.0 mi Calm Calm - 0.00 in Rain Light Rain
8:51 PM 66.9 °F - 63.0 °F 87% 29.84 in 10.0 mi Calm Calm - 0.00 in Rain Light Rain
9:51 PM 66.0 °F - 62.1 °F 87% 29.85 in 10.0 mi West 8.1 mph - 0.02 in Rain Light Rain
10:51 PM 66.0 °F - 62.1 °F 87% 29.86 in 10.0 mi NNW 3.5 mph - 0.00 in   Mostly Cloudy
11:51 PM 66.9 °F - 63.0 °F 87% 29.86 in 10.0 mi NNW 3.5 mph - N/A   Overcast